Location: Altmatt
(47.1333°N, 8.7000°E)
Time: 08:06:25
(UTC+00:00)

Cosmos 1624 Rocket - Pass Details

Date: 13 July 2020
Orbit: 758 x 783 km, 74.0° (Epoch: 04 August)

Event Time Altitude Azimuth Distance (km) Brightness Sun altitude
Rises 20:40:44 0° 339° (NNW) 3,241 8.8 -11.2°
Reaches altitude 10° 20:43:09 10° 342° (NNW) 2,307 7.7 -11.5°
Maximum altitude 20:48:21 69° 65° (ENE) 815 4.1 -12.1°
Enters shadow 20:52:17 18° 147° (SSE) 1,817 5.3 -12.5°
